GW6936 Weather Reports


Display with metric or nautical units.
time (UTC)temp
F
wind
direction
speed
MPH
gust
MPH
rain 1hr
in
rain 24hr
in
rain mn
in
humidity
%
barometer
mb
20260906115409 70 285 3.0 4.0 1.04 0.17 0.17 98 1050.0
20260906114908 70 8 2.0 4.0 0.90 0.15 0.15 98 1049.5
20260906114404 70 101 3.0 4.0 0.00 0.00 0.00 98 1049.8
20260906113859 70 294 0.0 0.0 0.00 0.00 0.00 98 1049.7
20260906113358 70 289 4.0 7.0 0.00 0.00 0.00 98 1049.8
20260906112854 69 296 8.0 9.0 0.00 0.00 0.00 98 1049.8
20260906112350 69 265 2.0 3.0 0.00 0.00 0.00 98 1049.6
20260906111849 69 263 0.0 0.0 0.00 0.00 0.00 98 1049.3
20260906111349 69 264 0.0 0.0 0.00 0.00 0.00 98 1049.0
20260906110844 69 263 0.0 0.0 0.00 0.00 0.00 98 1049.3
20260906110340 69 263 0.0 0.0 0.00 0.00 0.00 98 1049.2
20260906105839 69 263 0.0 0.0 0.00 0.00 0.00 98 1049.2
20260906105334 69 263 0.0 0.0 0.00 0.00 0.00 98 1049.1
20260906104830 69 263 0.0 0.0 0.00 0.00 0.00 98 1049.0
20260906104329 68 263 0.0 0.0 0.00 0.00 0.00 97 1049.1
20260906103828 68 263 0.0 0.0 0.00 0.00 0.00 97 1048.8
20260906103326 68 263 0.0 0.0 0.00 0.00 0.00 97 1048.7
20260906102822 69 263 0.0 0.0 0.00 0.00 0.00 97 1048.7
20260906102321 69 263 0.0 0.0 0.00 0.00 0.00 97 1048.8
20260906101817 69 263 0.0 0.0 0.00 0.00 0.00 97 1048.7
20260906101312 69 263 0.0 0.0 0.00 0.00 0.00 97 1048.9
20260906100807 69 263 0.0 0.0 0.00 0.00 0.00 97 1048.6
20260906100306 68 263 0.0 0.0 0.00 0.00 0.00 97 1048.7
20260906095801 69 263 0.0 0.0 0.00 0.00 0.00 97 1048.5
20260906095257 69 263 0.0 0.0 0.00 0.00 0.00 97 1048.6
20260906094756 68 263 0.0 0.0 0.00 0.00 0.00 97 1048.7
20260906094251 68 263 0.0 0.0 0.00 0.00 0.00 97 1048.6
20260906093748 68 263 0.0 0.0 0.00 0.00 0.00 97 1048.6
20260906093243 69 263 0.0 0.0 0.00 0.00 0.00 97 1048.7
20260906092738 69 263 0.0 0.0 0.00 0.00 0.00 97 1048.6
20260906092237 69 263 0.0 0.0 0.00 0.00 0.00 97 1048.6
20260906091734 69 263 0.0 0.0 0.00 0.00 0.00 97 1048.4
20260906091229 69 263 0.0 0.0 0.00 0.00 0.00 97 1048.3
20260906090726 69 263 0.0 0.0 0.00 0.00 0.00 97 1048.6
20260906090224 69 263 0.0 0.0 0.00 0.00 0.00 97 1048.6
20260906085724 69 263 0.0 0.0 0.00 0.00 0.00 97 1048.4
20260906085223 69 263 0.0 0.0 0.00 0.00 0.00 97 1048.5
20260906084718 69 263 0.0 0.0 0.00 0.00 0.00 96 1048.1
20260906084218 69 263 0.0 0.0 0.00 0.00 0.00 96 1048.1
20260906083713 69 263 0.0 0.0 0.00 0.00 0.00 96 1048.4
20260906083209 70 263 0.0 0.0 0.00 0.00 0.00 96 1048.6
20260906082704 69 263 0.0 0.0 0.00 0.00 0.00 96 1048.6
20260906082159 69 263 0.0 0.0 0.00 0.00 0.00 96 1048.4
20260906081655 69 263 0.0 0.0 0.00 0.00 0.00 96 1048.6
20260906081150 69 263 0.0 0.0 0.00 0.00 0.00 96 1048.7
20260906080646 69 263 0.0 0.0 0.00 0.00 0.00 95 1048.3
20260906080142 69 263 0.0 0.0 0.00 0.00 0.00 95 1048.3
20260906075642 70 263 0.0 0.0 0.00 0.00 0.00 95 1047.9
20260906075136 70 263 0.0 0.0 0.00 0.00 0.00 95 1048.1
20260906074632 70 263 0.0 0.0 0.00 0.00 0.00 96 1048.2
20260906074130 70 263 0.0 0.0 0.00 0.00 0.00 96 1048.2
20260906073626 70 263 0.0 0.0 0.00 0.00 0.00 96 1048.3
20260906073121 70 264 0.0 0.0 0.00 0.00 0.00 96 1048.4
20260906072616 69 263 0.0 0.0 0.00 0.00 0.00 96 1048.4
20260906072113 70 263 0.0 0.0 0.00 0.00 0.00 95 1048.7
20260906071609 70 264 0.0 0.0 0.00 0.00 0.00 95 1048.6
20260906071109 70 263 0.0 0.0 0.00 0.00 0.00 95 1048.7
20260906070606 70 263 0.0 0.0 0.00 0.00 0.00 95 1048.6
20260906070100 71 264 0.0 0.0 0.00 0.00 0.00 95 1048.9
20260906065600 70 263 0.0 0.0 0.00 0.00 0.00 95 1048.8
20260906065056 71 263 0.0 0.0 0.00 0.00 0.00 94 1048.8
20260906064551 71 263 0.0 0.0 0.00 0.00 0.00 94 1048.6
20260906064046 71 263 0.0 0.0 0.00 0.00 0.00 94 1048.8
20260906063541 71 263 0.0 0.0 0.00 0.00 0.00 93 1049.1
20260906063038 71 263 0.0 0.0 0.00 0.00 0.00 93 1048.7
20260906062532 71 263 0.0 0.0 0.00 0.00 0.00 93 1049.0
20260906062026 71 263 0.0 0.0 0.00 0.00 0.00 93 1048.8
20260906061523 71 263 0.0 0.0 0.00 0.00 0.00 93 1048.6
20260906061022 71 263 0.0 0.0 0.00 0.00 0.00 94 1048.8
20260906060519 71 263 0.0 0.0 0.00 0.00 0.00 94 1048.7
20260906060016 71 263 0.0 0.0 0.00 0.00 0.00 94 1048.9
20260906055511 72 263 0.0 0.0 0.00 0.00 0.00 93 1049.0
20260906055007 72 263 0.0 0.0 0.00 0.00 0.00 93 1049.0
20260906054506 72 263 0.0 0.0 0.00 0.00 0.00 92 1048.9
20260906054002 72 263 0.0 0.0 0.00 0.00 0.00 92 1049.0
20260906053458 72 263 0.0 0.0 0.00 0.00 0.00 92 1049.0
20260906052954 72 263 0.0 0.0 0.00 0.00 0.00 91 1049.3
20260906052450 72 263 0.0 0.0 0.00 0.00 0.00 91 1049.0
20260906051946 73 263 0.0 0.0 0.00 0.00 0.00 90 1049.3
20260906051442 73 263 0.0 0.0 0.00 0.00 0.00 89 1049.0
20260906050937 73 263 0.0 2.0 0.00 0.00 0.00 90 1049.3
20260906050437 73 268 4.0 4.0 0.00 0.00 0.00 88 1049.1
20260906045936 73 296 0.0 0.0 0.00 0.00 0.00 88 1049.0
20260906045435 73 296 0.0 0.0 0.00 0.00 0.00 88 1049.1
20260906044932 73 296 0.0 0.0 0.00 0.00 0.00 88 1049.0
20260906044432 73 296 0.0 0.0 0.00 0.00 0.00 87 1049.1
20260906043927 73 296 0.0 0.0 0.00 0.00 0.00 88 1049.0
20260906043423 73 296 0.0 0.0 0.00 0.00 0.00 87 1048.9
20260906042918 73 296 0.0 0.0 0.00 0.00 0.00 87 1049.0
20260906042417 73 296 0.0 0.0 0.00 0.00 0.00 87 1049.3
20260906041913 73 296 0.0 0.0 0.00 0.00 0.00 87 1049.0
20260906041409 74 296 0.0 0.0 0.00 0.00 0.00 87 1049.2
20260906040908 74 296 0.0 0.0 0.00 0.00 0.00 86 1049.1
20260906040403 74 296 0.0 0.0 0.00 0.00 0.00 86 1049.0
20260906035859 74 296 0.0 0.0 0.00 0.00 0.00 87 1048.7
20260906035355 74 296 0.0 0.0 0.00 0.00 0.00 86 1048.9
20260906034850 74 296 0.0 0.0 0.00 0.00 0.00 85 1048.8
20260906034350 75 296 0.0 0.0 0.00 0.00 0.00 85 1048.6
20260906033846 75 296 0.0 0.0 0.00 0.00 0.00 85 1048.7
20260906033345 75 296 0.0 0.0 0.00 0.00 0.00 85 1048.5
20260906032841 75 297 0.0 0.0 0.00 0.00 0.00 85 1048.6
20260906032337 74 295 0.0 0.0 0.00 0.00 0.00 88 1048.4
20260906031832 73 294 0.0 1.0 0.00 0.00 0.00 92 1048.6
20260906031327 74 294 0.0 0.0 0.00 0.00 0.00 89 1048.6
20260906030827 74 292 0.0 0.0 0.00 0.00 0.00 88 1048.0
20260906030322 74 292 0.0 0.0 0.00 0.00 0.00 86 1048.3
20260906025817 75 292 0.0 0.0 0.00 0.00 0.00 86 1048.1
20260906025311 75 292 0.0 0.0 0.00 0.00 0.00 86 1048.4
20260906024810 75 292 0.0 0.0 0.00 0.00 0.00 86 1048.4
20260906024309 75 292 0.0 0.0 0.00 0.00 0.00 86 1048.1
20260906023804 75 292 0.0 0.0 0.00 0.00 0.00 86 1048.4
20260906023300 75 292 0.0 0.0 0.00 0.00 0.00 87 1048.4
20260906022755 76 292 0.0 0.0 0.00 0.00 0.00 89 1048.4
20260906022251 76 292 0.0 0.0 0.00 0.00 0.00 88 1048.4
20260906021747 77 292 0.0 0.0 0.00 0.00 0.00 87 1048.3
20260906021245 77 292 0.0 0.0 0.00 0.00 0.00 86 1048.1
20260906020741 77 292 0.0 0.0 0.00 0.00 0.00 85 1048.1
20260906020240 77 292 0.0 0.0 0.00 0.00 0.00 86 1048.1
20260906015735 77 292 0.0 0.0 0.00 0.00 0.00 85 1048.0
20260906015233 77 292 0.0 0.0 0.00 0.00 0.00 85 1048.3
20260906014728 77 292 0.0 0.0 0.00 0.00 0.00 86 1048.2
20260906014224 77 292 0.0 0.0 0.00 0.00 0.00 88 1048.3
20260906013720 76 292 0.0 0.0 0.00 0.00 0.00 89 1048.0
20260906013220 76 292 0.0 0.0 0.00 0.00 0.00 90 1048.0
20260906012715 77 292 0.0 0.0 0.00 0.00 0.00 89 1047.8
20260906012210 77 293 0.0 0.0 0.00 0.00 0.00 88 1048.1
20260906011706 78 292 0.0 0.0 0.00 0.00 0.00 89 1047.7
20260906011205 78 292 0.0 0.0 0.00 0.00 0.00 88 1047.5
20260906010700 78 292 0.0 0.0 0.00 0.00 0.00 85 1047.4
20260906010157 79 292 0.0 0.0 0.00 0.00 0.00 84 1047.4
20260906005656 79 292 0.0 0.0 0.00 0.00 0.00 84 1047.5
20260906005156 79 292 0.0 0.0 0.00 0.00 0.00 83 1047.5
20260906004655 80 292 0.0 0.0 0.00 0.00 0.00 82 1047.5
20260906004150 80 292 0.0 0.0 0.00 0.00 0.00 82 1047.6
20260906003645 80 292 0.0 0.0 0.00 0.00 0.00 80 1047.4
20260906003141 80 292 0.0 0.0 0.00 0.00 0.00 78 1047.4
20260906002636 81 292 0.0 0.0 0.00 0.00 0.00 76 1047.4
20260906002130 81 292 0.0 0.0 0.00 0.00 0.00 75 1047.4
20260906001626 81 292 0.0 0.0 0.00 0.00 0.00 74 1047.6
20260906001126 82 292 0.0 0.0 0.00 0.00 0.00 76 1047.7
20260906000622 82 292 0.0 0.0 0.00 0.00 0.00 76 1047.7
20260906000117 83 292 0.0 0.0 0.00 0.00 0.00 75 1047.9
20260905235616 83 292 0.0 0.0 0.00 0.00 0.00 73 1047.8
20260905235111 84 293 0.0 0.0 0.00 0.00 0.00 73 1047.8
20260905234606 84 292 0.0 0.0 0.00 0.00 0.00 71 1048.0
20260905234101 84 292 0.0 0.0 0.00 0.00 0.00 70 1047.9
20260905233601 85 292 0.0 0.0 0.00 0.00 0.00 71 1048.0
20260905233056 86 293 0.0 0.0 0.00 0.00 0.00 71 1047.9
20260905232551 87 293 0.0 0.0 0.00 0.00 0.00 72 1048.1
20260905232047 87 293 0.0 0.0 0.00 0.00 0.00 68 1048.1
20260905231542 88 293 0.0 0.0 0.00 0.00 0.00 67 1048.2
20260905231038 88 293 0.0 0.0 0.00 0.00 0.00 66 1048.3
20260905230537 89 293 0.0 0.0 0.00 0.00 0.00 61 1048.2
20260905230036 89 293 0.0 0.0 0.00 0.00 0.00 58 1048.1
20260905225531 90 293 0.0 0.0 0.00 0.00 0.00 60 1047.9
20260905225026 90 293 0.0 0.0 0.00 0.00 0.00 60 1047.8
20260905224521 91 293 0.0 0.0 0.00 0.00 0.00 58 1047.9
20260905224020 91 293 0.0 0.0 0.00 0.00 0.00 58 1047.8
20260905223518 91 293 0.0 0.0 0.00 0.00 0.00 60 1048.0
20260905223014 92 293 0.0 0.0 0.00 0.00 0.00 58 1047.9
20260905222513 92 293 0.0 1.0 0.00 0.00 0.00 55 1048.1
20260905222009 93 292 0.0 1.0 0.00 0.00 0.00 54 1048.1
20260905221505 94 295 2.0 3.0 0.00 0.00 0.00 54 1048.1
20260905221001 94 228 0.0 1.0 0.00 0.00 0.00 52 1048.2
20260905220457 95 227 1.0 1.0 0.00 0.00 0.00 55 1048.0
20260905215956 95 226 0.0 0.0 0.00 0.00 0.00 56 1047.9
20260905215451 94 226 0.0 0.0 0.00 0.00 0.00 51 1047.9
20260905214948 94 226 0.0 2.0 0.00 0.00 0.00 46 1047.8
20260905214443 94 288 0.0 1.0 0.00 0.00 0.00 52 1047.9
20260905213943 94 289 2.0 3.0 0.00 0.00 0.00 50 1047.8
20260905213439 94 294 0.0 2.0 0.00 0.00 0.00 51 1047.8
20260905212934 95 296 2.0 3.0 0.00 0.00 0.00 50 1047.7
20260905212429 95 294 1.0 2.0 0.00 0.00 0.00 48 1047.7
20260905211928 95 292 3.0 3.0 0.00 0.00 0.00 50 1047.9
20260905211424 95 289 0.0 1.0 0.00 0.00 0.00 47 1047.6
20260905210920 95 289 0.0 1.0 0.00 0.00 0.00 52 1047.9
20260905210420 94 294 1.0 2.0 0.00 0.00 0.00 53 1047.6
20260905205920 94 302 0.0 1.0 0.00 0.00 0.00 51 1047.8
20260905205415 94 298 1.0 4.0 0.00 0.00 0.00 51 1047.9
20260905204913 94 294 0.0 0.0 0.00 0.00 0.00 47 1047.6
20260905204410 95 289 1.0 3.0 0.00 0.00 0.00 49 1048.0
20260905203909 95 265 0.0 8.0 0.00 0.00 0.00 51 1047.9
20260905203404 94 93 0.0 1.0 0.00 0.00 0.00 46 1047.9
20260905202900 95 297 3.0 6.0 0.00 0.00 0.00 46 1048.0
20260905202354 94 289 0.0 0.0 0.00 0.00 0.00 48 1048.3
20260905201851 94 289 1.0 1.0 0.00 0.00 0.00 49 1048.2
20260905201346 94 285 2.0 3.0 0.00 0.00 0.00 50 1048.2
20260905200845 94 282 3.0 7.0 0.00 0.00 0.00 46 1048.4
20260905200342 96 278 3.0 3.0 0.00 0.00 0.00 50 1048.5
20260905195840 96 289 0.0 3.0 0.00 0.00 0.00 48 1048.5
20260905195335 96 164 0.0 0.0 0.00 0.00 0.00 50 1048.5
20260905194831 95 166 0.0 1.0 0.00 0.00 0.00 49 1048.6
20260905194330 96 170 2.0 3.0 0.00 0.00 0.00 49 1048.9
20260905193829 96 149 1.0 3.0 0.00 0.00 0.00 46 1048.8
20260905193324 95 172 1.0 2.0 0.00 0.00 0.00 47 1048.9
20260905192820 94 298 1.0 1.0 0.00 0.00 0.00 48 1048.9
20260905192316 95 296 2.0 3.0 0.00 0.00 0.00 51 1049.0
20260905191815 95 262 0.0 1.0 0.00 0.00 0.00 48 1048.9
20260905191314 95 257 0.0 3.0 0.00 0.00 0.00 46 1049.1
20260905190813 94 240 1.0 4.0 0.00 0.00 0.00 49 1049.1
20260905190312 93 162 2.0 4.0 0.00 0.00 0.00 55 1049.0
20260905185812 93 159 0.0 3.0 0.00 0.00 0.00 46 1049.3
20260905185307 93 163 1.0 2.0 0.00 0.00 0.00 52 1049.5
20260905184806 92 196 3.0 7.0 0.00 0.00 0.00 53 1049.5
20260905184305 93 120 2.0 3.0 0.00 0.00 0.00 51 1049.5
20260905183804 93 167 1.0 2.0 0.00 0.00 0.00 47 1049.5
20260905183300 92 123 1.0 4.0 0.00 0.00 0.00 53 1049.8
20260905182800 92 146 4.0 3.0 0.00 0.00 0.00 49 1049.8
20260905182300 91 253 2.0 6.0 0.00 0.00 0.00 56 1049.8
20260905181755 91 120 2.0 4.0 0.00 0.00 0.00 55 1050.0
20260905181255 91 93 2.0 4.0 0.00 0.00 0.00 56 1050.0
20260905180754 91 167 1.0 4.0 0.00 0.00 0.00 57 1050.0
20260905180249 92 112 3.0 3.0 0.00 0.00 0.00 49 1049.9
20260905175744 91 175 0.0 2.0 0.00 0.00 0.00 51 1050.0
20260905175238 91 169 5.0 6.0 0.00 0.00 0.00 48 1050.4
20260905174733 92 157 3.0 6.0 0.00 0.00 0.00 51 1050.3
20260905174229 91 175 2.0 4.0 0.00 0.00 0.00 51 1050.2
20260905173726 89 196 1.0 4.0 0.00 0.00 0.00 59 1050.1
20260905173222 90 107 1.0 6.0 0.00 0.00 0.00 53 1050.2
20260905172721 89 118 2.0 2.0 0.00 0.00 0.00 56 1050.4
20260905172220 90 152 4.0 8.0 0.00 0.00 0.00 49 1050.3
20260905171716 91 145 2.0 3.0 0.00 0.00 0.00 56 1050.5
20260905171212 90 129 1.0 2.0 0.00 0.00 0.00 59 1050.6
20260905170709 89 127 2.0 3.0 0.00 0.00 0.00 56 1050.4
20260905170209 89 154 2.0 4.0 0.00 0.00 0.00 54 1050.7
20260905165709 90 197 1.0 2.0 0.00 0.00 0.00 58 1050.7
20260905165204 89 155 2.0 2.0 0.00 0.00 0.00 55 1050.8
20260905164659 88 160 1.0 3.0 0.00 0.00 0.00 51 1050.6
20260905164159 87 109 1.0 3.0 0.00 0.00 0.00 56 1050.7
20260905163655 87 112 3.0 7.0 0.00 0.00 0.00 55 1050.5
20260905163151 88 172 5.0 7.0 0.00 0.00 0.00 57 1050.5
20260905162647 87 102 1.0 3.0 0.00 0.00 0.00 57 1050.5
20260905162147 88 167 5.0 7.0 0.00 0.00 0.00 55 1050.6
20260905161647 88 153 5.0 6.0 0.00 0.00 0.00 58 1050.7
20260905161139 86 75 2.0 3.0 0.00 0.00 0.00 63 1050.5
20260905160639 87 150 6.0 7.0 0.00 0.00 0.00 54 1050.9
20260905160138 87 140 4.0 4.0 0.00 0.00 0.00 59 1050.9
20260905155632 87 226 1.0 4.0 0.00 0.00 0.00 62 1051.0
20260905155131 85 171 3.0 4.0 0.00 0.00 0.00 62 1050.9
20260905154631 85 160 3.0 6.0 0.00 0.00 0.00 61 1051.4
20260905154127 84 170 4.0 4.0 0.00 0.00 0.00 63 1051.1
20260905153623 84 147 5.0 6.0 0.00 0.00 0.00 62 1051.1
20260905153118 83 97 3.0 4.0 0.00 0.00 0.00 64 1051.4
20260905152613 83 104 3.0 6.0 0.00 0.00 0.00 66 1051.5
20260905152108 83 133 3.0 7.0 0.00 0.00 0.00 63 1051.4
20260905151603 83 138 4.0 9.0 0.00 0.00 0.00 66 1051.4
20260905151058 83 143 3.0 4.0 0.00 0.00 0.00 67 1051.5
20260905150553 82 139 1.0 2.0 0.00 0.00 0.00 68 1051.2
20260905150052 82 156 2.0 4.0 0.00 0.00 0.00 71 1051.3
20260905145550 82 128 2.0 7.0 0.00 0.00 0.00 68 1051.5
20260905145049 80 133 3.0 6.0 0.00 0.00 0.00 71 1051.6
20260905144544 80 139 4.0 6.0 0.00 0.00 0.00 71 1051.7
20260905144044 80 75 4.0 4.0 0.00 0.00 0.00 71 1051.6
20260905143543 82 120 2.0 8.0 0.00 0.00 0.00 69 1051.6
20260905143039 81 133 4.0 7.0 0.00 0.00 0.00 70 1051.8
20260905142537 80 104 0.0 3.0 0.00 0.00 0.00 75 1051.7
20260905142033 79 124 1.0 3.0 0.00 0.00 0.00 74 1051.7
20260905141533 79 119 4.0 4.0 0.00 0.00 0.00 73 1051.7
20260905141029 79 71 3.0 4.0 0.00 0.00 0.00 73 1051.7
20260905140530 77 69 2.0 4.0 0.00 0.00 0.00 78 1051.6
20260905140028 76 71 3.0 6.0 0.00 0.00 0.00 77 1051.6
20260905135524 76 32 1.0 4.0 0.00 0.00 0.00 82 1051.7
20260905135020 75 97 4.0 4.0 0.00 0.00 0.00 81 1051.8
20260905134520 74 92 1.0 3.0 0.00 0.00 0.00 83 1052.0
20260905134018 74 8 2.0 4.0 0.00 0.00 0.00 83 1052.0
20260905133514 74 100 2.0 10.0 0.00 0.00 0.00 84 1051.6
20260905133013 73 15 4.0 8.0 0.00 0.00 0.00 85 1051.9
20260905132508 73 3 4.0 8.0 0.00 0.00 0.00 85 1052.1
20260905132008 73 35 4.0 13.0 0.00 0.00 0.00 86 1052.3
20260905131504 73 69 3.0 7.0 0.00 0.00 0.00 87 1052.3
20260905130959 73 49 4.0 9.0 0.00 0.00 0.00 85 1052.2
20260905130458 74 30 4.0 10.0 0.00 0.00 0.00 84 1052.2
20260905125957 74 60 4.0 8.0 0.00 0.00 0.00 81 1052.4
20260905125452 74 94 0.0 8.0 0.00 0.00 0.00 82 1052.2
20260905124948 74 32 0.0 4.0 0.00 0.00 0.00 81 1052.1
20260905124445 74 271 4.0 6.0 0.00 0.00 0.00 83 1051.9
20260905123940 74 315 4.0 4.0 0.00 0.00 0.00 83 1051.7
20260905123436 74 20 0.0 1.0 0.00 0.00 0.00 82 1051.4
20260905122937 74 14 1.0 2.0 0.00 0.00 0.00 82 1051.3
20260905122436 74 36 1.0 2.0 0.00 0.00 0.00 82 1051.5
20260905121932 74 48 2.0 3.0 0.00 0.00 0.00 82 1051.5
20260905121428 74 15 1.0 2.0 0.00 0.00 0.00 82 1051.4
20260905120926 74 73 0.0 3.0 0.00 0.00 0.00 83 1051.2
20260905120421 74 63 2.0 3.0 0.00 0.00 0.00 82 1051.6
20260905115916 74 335 0.0 3.0 0.00 0.00 0.00 82 1051.5